User: anonymous   Login
Location: Unspecified
(0.0000°N, 0.0000°E)
Time: 08:24:39
(UTC+00:00)
Language:

SES 6 - Orbit

View from above orbital plane
View from above orbital plane
View from above satellite
View from above satellite

Ground track
Ground track

The orbit data is extracted from the following two-line orbital elements,

1 39172U 13026A   14331.12106269 -.00000264  00000-0  00000+0 0  3854
2 39172 000.0171 347.3111 0002534 267.6460 174.1098 01.00270278  5437
Epoch (UTC): 27 November 2014 02:54:19
Eccentricity: 0.0002534
inclination: 0.0171°
perigee height: 35776 km
apogee height: 35797 km
right ascension of ascending node: 347.3111°
argument of perigee: 267.6460°
revolutions per day: 1.00270278
mean anomaly at epoch: 174.1098°
orbit number at epoch: 543

The dashed part of the orbit path shows where the satellite is in the earth's shadow,  

DLR